Temperature
19 18 18 19 19 19 18 18 18 18 18 18 18 18 18 18 19 19 19 19 19 19 18 19 19 19 19 19 19 19 19 19 18 18 18 18 17 17 17 17 17 17 17
19 18 18 18 18 18 18 18 18 18 18 18 18 18 18 18 19 19 19 19 19 19 19 19 19 19 19 19 19 19 19 19 19 18 18 18 18 18 18 18 18 18 18
19 18 18 18 18 18 18 18 18 18 18 18 18 18 18 18 19 19 19 19 19 19 19 19 19 19 19 19 19 19 19 19 19 19 18 18 18 18 18 18 18 18 18
18 18 18 18 18 18 18 18 18 17 17 17 17 18 18 18 18 19 19 19 19 19 19 19 19 19 19 19 19 19 19 19 19 19 19 19 19 19 18 18 18 18 18
18 18 17 17 17 17 17 17 17 17 17 17 17 17 18 18 18 18 18 19 19 19 19 19 19 19 19 19 19 19 19 19 19 19 19 19 19 19 19 18 18 18 18
18 17 17 17 17 17 17 17 17 17 16 17 17 17 17 18 18 18 18 19 19 19 19 19 19 19 19 19 19 19 19 19 19 19 19 19 19 19 19 19 19 18 18
18 17 17 16 16 16 16 16 16 16 16 16 16 17 17 18 18 18 19 19 19 19 19 19 19 19 19 19 19 18 18 18 19 19 19 19 19 19 19 19 19 18 18
17 17 17 16 16 16 16 16 16 15 15 16 16 16 17 17 18 19 19 19 19 19 19 19 19 19 19 19 19 18 18 18 18 18 19 19 19 19 19 19 18 18 18
18 17 17 16 16 16 15 15 15 15 15 15 15 15 16 17 18 18 19 19 20 19 19 19 19 19 19 19 18 18 18 18 18 18 18 18 19 19 19 18 18 18 18
18 17 17 16 16 16 16 15 15 15 15 15 15 15 15 15 16 16 17 18 19 19 19 19 19 19 19 18 18 18 18 18 17 17 18 18 18 18 18 18 18 17 17
18 17 17 16 16 16 16 15 16 15 15 15 14 14 15 15 15 15 16 17 18 18 19 19 19 19 18 18 17 17 17 17 17 17 17 17 17 17 17 17 17 17 17
18 17 17 16 16 16 16 16 15 15 15 15 14 14 14 14 15 15 15 16 16 17 18 18 18 18 18 18 17 17 17 17 17 17 16 16 16 16 17 17 17 16 16
17 17 17 16 16 16 16 16 15 15 15 15 15 14 14 14 14 14 15 15 16 16 17 17 17 17 17 17 17 17 17 16 16 16 16 16 16 16 16 16 16 16 16
17 17 17 17 16 16 16 15 15 15 15 15 15 14 14 14 14 14 14 15 15 16 16 16 16 16 16 17 16 16 16 15 15 15 15 15 15 15 15 15 15 16 16
16 16 16 16 15 15 15 15 15 15 15 15 14 14 14 14 14 14 14 14 14 15 15 15 15 15 16 16 15 15 15 14 14 14 14 14 14 14 15 15 15 15 15
15 15 15 15 15 15 15 15 14 14 14 14 14 14 14 14 14 14 14 15 15 14 14 15 15 15 15 14 14 14 14 14 14 14 14 14 14 14 14 14 14 15 15
14 14 14 14 14 14 14 14 14 14 14 14 14 14 14 14 14 14 14 14 14 14 14 14 14 14 14 14 13 13 13 13 13 13 13 13 13 13 13 13 14 14 14
13 14 13 14 14 14 14 14 14 14 14 14 14 14 14 14 14 14 14 14 14 14 14 14 13 13 13 13 13 13 13 13 12 12 12 12 12 12 13 13 13 13 13
12 13 13 13 13 13 14 14 14 14 14 14 14 14 14 14 14 14 14 14 14 14 14 14 13 13 12 12 12 12 12 12 12 11 11 12 12 12 12 12 12 13 13
11 11 12 12 13 13 13 13 13 13 14 14 13 13 13 14 14 14 14 14 14 14 13 13 12 12 12 11 12 11 11 11 11 11 11 11 11 12 12 12 12 12 12
10 10 10 11 12 12 12 13 13 13 13 13 13 13 13 13 13 13 13 13 13 13 13 12 12 11 11 11 11 11 11 11 11 11 11 11 11 11 11 11 11 11 11
9 9 9 10 11 11 12 12 12 13 13 13 13 13 13 13 13 13 13 13 13 13 12 12 11 11 11 11 11 11 11 11 10 11 11 10 10 11 10 10 10 10 10
9 9 9 9 10 10 11 12 12 12 13 13 13 13 12 12 12 12 12 12 12 12 12 12 11 11 11 11 11 11 11 11 11 11 11 10 10 10 10 10 10 10 10
9 9 9 9 9 10 10 11 11 12 12 12 12 12 12 12 12 12 12 11 11 11 11 11 11 11 11 11 11 11 12 11 11 11 11 10 10 10 10 9 9 9 9
9 8 9 9 9 9 10 10 10 11 11 12 12 12 12 12 11 11 11 11 11 11 11 11 11 11 11 11 11 12 12 12 11 11 11 10 10 10 9 9 9 9 8
8 8 8 9 9 9 9 10 10 10 11 11 11 12 12 12 11 11 11 11 11 11 11 11 11 11 11 11 11 12 12 12 12 11 11 11 10 10 9 9 9 9 8
Wind_Speed
5 5 4 3 5 6 4 5 5 5 4 4 5 6 7 7 8 8 8 17 20 21 22 21 20 20 21 21 21 22 23 23 24 25 26 26 26 25 25 24 24 23 22
3 4 4 4 4 5 6 4 5 5 4 5 7 7 7 7 7 7 9 14 21 24 24 23 23 23 23 23 23 23 24 25 25 26 27 27 27 27 27 26 26 25 25
3 3 4 5 5 7 7 5 6 5 7 8 9 9 8 7 8 8 10 11 13 21 25 25 25 25 25 25 24 24 25 25 26 26 27 27 28 29 29 28 27 26 26
5 3 5 5 4 5 4 6 6 7 7 7 8 8 8 9 11 10 11 12 13 14 19 25 27 26 26 26 26 25 25 26 26 26 27 27 28 29 29 29 29 28 27
4 3 3 3 3 4 4 6 4 4 6 7 8 9 9 10 10 13 12 12 13 15 15 18 27 29 28 27 27 26 26 26 26 26 26 27 28 28 29 30 29 29 28
0 2 3 4 4 4 4 4 5 5 5 6 10 10 7 9 9 11 12 12 11 15 17 17 17 23 29 28 27 27 26 26 25 25 25 26 27 28 29 29 30 29 29
2 1 3 4 4 4 5 6 6 7 7 6 7 8 8 10 11 10 11 11 11 11 13 13 12 13 16 27 28 28 27 26 25 24 24 25 26 27 28 29 29 29 29
1 3 2 3 5 5 6 6 6 5 6 6 6 8 7 8 7 11 10 11 12 10 11 12 10 11 11 11 19 26 26 25 24 24 23 24 24 25 26 27 28 28 28
2 1 2 3 4 5 5 6 6 7 6 6 6 5 5 5 7 7 8 7 8 8 8 7 8 8 11 9 10 18 23 23 22 21 21 21 21 23 24 25 26 27 27
4 3 3 4 4 4 6 6 5 5 6 7 6 6 7 8 8 7 8 9 7 6 7 6 5 4 5 7 7 10 14 15 15 15 15 16 17 19 21 23 25 26 27
6 6 6 4 3 4 6 5 6 6 5 6 7 7 8 8 8 8 9 8 7 5 3 3 2 1 1 3 4 6 8 8 7 7 8 9 11 14 17 20 23 25 26
5 8 8 6 4 4 5 5 6 7 6 7 7 7 7 7 7 7 8 8 8 7 4 1 2 2 3 6 8 10 9 8 6 4 2 2 1 2 5 9 14 17 19
5 5 5 4 3 4 5 6 6 7 7 8 7 7 7 7 8 8 8 8 8 5 2 1 2 4 4 7 9 13 11 11 10 9 9 9 9 10 10 10 8 6 3
4 1 3 4 5 6 7 6 6 7 6 6 8 8 7 8 8 8 8 8 7 6 3 1 2 4 5 7 10 12 11 13 14 14 14 14 14 15 15 15 15 15 14
7 5 3 4 5 6 7 7 6 7 7 7 7 8 7 7 7 8 8 7 7 6 5 3 2 4 5 7 9 10 10 13 15 15 16 16 16 16 17 17 18 17 17
10 9 8 7 7 7 7 7 7 7 7 7 6 7 7 7 7 7 7 7 8 7 4 2 3 5 7 8 10 12 13 16 16 17 17 17 17 17 18 18 18 18 18
9 9 9 9 9 9 8 8 7 8 7 7 7 7 7 7 6 6 6 6 7 7 5 2 4 7 9 10 9 11 12 11 13 17 18 18 18 18 18 18 18 18 18
8 9 9 10 11 11 9 9 8 7 7 6 6 6 7 7 7 6 6 6 6 7 6 8 6 6 8 10 11 10 9 11 12 17 18 18 19 19 18 18 18 18 18
9 9 8 10 10 11 11 10 9 7 7 6 5 5 5 6 7 6 6 5 4 6 7 10 9 7 7 8 10 10 11 9 11 15 17 17 18 19 19 18 18 19 19
11 10 9 8 9 11 12 11 10 8 6 5 4 3 4 4 5 6 4 3 3 6 10 11 11 9 8 8 9 10 9 7 8 10 12 15 18 19 19 18 18 18 18
13 11 10 9 9 10 11 11 10 10 7 5 3 1 2 3 3 3 1 2 6 8 10 11 11 9 8 9 8 6 9 8 8 9 9 8 9 9 12 15 16 17 18
12 11 11 11 10 12 12 11 9 7 5 4 4 3 4 3 4 6 8 7 8 10 11 10 9 10 8 6 5 7 8 9 7 6 7 7 7 7 6 10 12 15 17
11 11 11 11 10 10 11 10 10 7 6 5 6 6 5 6 5 6 9 12 12 12 11 9 11 9 7 6 6 6 7 7 6 8 8 8 7 8 6 10 13 15 16
9 10 10 11 10 10 10 10 10 8 7 7 7 7 7 8 7 8 8 9 9 9 9 8 9 8 6 5 6 7 7 7 7 7 9 7 7 7 7 7 11 12 13
9 9 10 11 11 9 9 10 10 7 8 8 8 9 11 10 11 11 10 12 11 9 11 15 14 12 11 9 7 6 7 7 7 6 5 5 7 6 5 4 8 10 10
9 11 11 11 10 8 8 9 10 7 8 8 8 10 13 13 13 11 11 12 12 11 11 13 11 10 9 8 8 5 3 5 7 5 3 4 7 6 4 4 5 8 7
Wind_Direction
228 246 258 267 268 263 243 226 249 258 255 266 266 259 257 255 250 241 229 200 199 204 209 211 216 221 226 227 224 222 221 220 221 221 222 222 221 220 220 219 218 218 218
231 253 263 265 271 286 296 294 281 275 270 265 264 265 266 269 266 256 243 218 210 211 214 216 217 219 222 225 225 224 222 221 220 221 222 222 221 221 221 221 220 219 218
234 246 259 263 260 269 276 276 274 269 265 258 253 250 252 254 257 255 254 252 233 220 217 220 220 219 220 221 223 223 223 222 221 221 221 221 221 220 220 221 221 220 219
222 223 242 250 251 254 252 256 253 259 262 264 264 260 253 247 247 243 243 244 244 243 227 223 222 221 220 221 222 223 222 222 222 221 221 220 219 219 220 220 221 221 220
225 215 248 254 249 253 254 267 263 244 259 262 264 256 248 247 247 248 242 238 236 234 235 229 222 221 220 222 223 223 222 222 222 222 221 220 219 219 219 220 221 221 221
260 48 316 346 348 317 300 301 311 289 268 262 270 272 260 252 246 242 243 242 235 232 232 234 223 221 221 220 221 222 222 223 223 223 223 222 221 219 219 220 221 221 221
10 26 304 336 317 302 321 321 312 305 297 286 281 277 262 254 246 240 236 237 236 232 231 227 219 212 215 221 222 222 222 224 224 224 224 224 223 222 220 220 221 221 221
196 284 0 332 320 328 307 289 290 289 292 296 296 296 291 279 266 256 234 227 229 229 230 231 219 211 209 202 217 224 227 228 227 226 225 225 226 224 223 222 221 221 221
182 262 308 298 312 304 299 323 311 295 295 297 287 285 294 289 307 297 297 267 232 219 219 223 226 219 211 204 197 211 221 226 229 231 231 230 229 228 226 224 223 222 222
200 205 227 258 279 291 297 295 315 328 308 297 291 281 276 286 292 299 303 305 289 243 220 214 223 220 205 203 192 173 199 214 226 235 240 240 236 233 231 228 227 225 223
203 202 205 216 247 268 279 296 302 290 284 284 289 292 291 288 275 271 283 292 301 294 258 216 204 128 82 104 119 123 144 169 195 218 234 243 243 240 235 232 231 230 227
209 201 196 193 220 253 279 286 282 280 272 272 277 279 280 280 284 277 273 280 282 283 278 234 147 119 91 83 92 103 114 122 128 135 148 152 164 212 227 229 230 232 232
235 199 187 175 225 255 267 270 273 275 278 277 273 270 271 272 272 274 275 275 274 278 289 28 72 92 95 96 101 105 100 102 98 95 92 89 85 81 80 80 84 87 92
297 339 165 199 222 242 260 267 275 277 279 282 283 278 273 272 270 268 265 268 273 269 245 177 74 88 96 100 113 107 102 101 99 95 91 87 84 82 81 80 79 78 74
313 308 270 235 234 241 250 260 264 271 275 277 283 287 284 278 271 264 259 250 246 253 240 177 124 106 107 107 122 112 108 104 102 98 94 90 87 86 84 83 81 79 76
332 321 304 283 262 250 247 249 260 265 271 277 277 278 280 280 279 273 261 251 236 230 231 169 143 139 121 116 111 109 108 105 101 100 97 95 92 89 86 84 82 80 77
334 322 307 293 279 264 254 247 251 264 271 279 287 294 299 297 289 281 268 251 236 218 206 128 112 125 119 117 110 112 112 103 102 102 100 97 94 90 87 84 82 80 77
319 320 314 300 285 275 264 254 254 265 274 281 292 302 307 309 310 296 277 256 235 208 172 146 133 130 124 121 118 113 109 105 104 103 102 99 96 92 88 84 82 80 77
302 305 310 308 298 287 278 268 257 255 262 274 288 300 310 315 314 306 290 265 229 194 157 144 138 129 123 125 120 114 113 112 109 110 103 98 97 93 89 86 83 80 78
286 288 291 297 301 297 284 272 265 254 253 261 274 296 315 321 318 307 288 252 176 145 139 139 138 135 130 128 125 127 126 129 127 121 105 103 99 92 89 88 85 83 80
275 277 281 286 291 293 282 277 268 254 237 235 229 202 43 34 10 349 311 164 145 136 137 136 136 135 137 140 141 144 140 138 130 129 126 124 115 100 93 88 85 84 82
265 267 268 272 279 282 297 301 282 265 246 222 204 165 140 111 82 72 77 90 122 134 137 136 136 141 143 142 141 148 147 144 142 154 141 137 123 107 99 97 101 96 90
257 259 262 261 263 269 269 264 264 261 240 216 195 178 174 139 134 112 94 88 90 104 121 130 137 140 145 154 160 164 163 155 140 153 139 127 118 108 107 120 122 109 100
264 265 266 265 262 267 258 245 244 244 239 218 192 173 153 151 153 138 123 109 103 103 117 124 124 123 132 147 151 150 138 126 124 137 137 128 132 126 126 134 145 129 117
265 265 266 261 257 257 247 233 225 235 227 214 191 171 158 154 154 149 131 118 110 105 102 106 109 113 112 106 112 132 139 136 133 135 134 126 137 133 138 148 168 163 144
266 265 262 260 257 252 231 218 212 231 225 205 185 167 160 152 154 150 140 133 128 127 125 120 116 120 116 106 95 95 117 148 144 135 129 121 147 146 148 159 162 175 179
Height
1522 1523 1523 1524 1525 1526 1526 1526 1527 1527 1528 1529 1529 1529 1530 1530 1530 1530 1530 1530 1531 1532 1533 1535 1535 1536 1538 1539 1540 1541 1543 1544 1546 1548 1550 1552 1554 1556 1558 1559 1561 1563 1565
1518 1519 1519 1520 1520 1521 1522 1522 1523 1523 1523 1523 1524 1524 1525 1525 1525 1525 1525 1526 1525 1526 1528 1529 1531 1532 1533 1534 1536 1537 1539 1540 1542 1544 1546 1547 1549 1551 1553 1555 1557 1559 1561
1515 1515 1516 1516 1516 1517 1517 1517 1518 1518 1518 1518 1518 1518 1518 1518 1518 1519 1519 1521 1521 1521 1523 1524 1525 1527 1528 1530 1531 1532 1534 1535 1537 1539 1541 1543 1545 1547 1549 1551 1552 1554 1556
1512 1512 1512 1513 1513 1513 1513 1513 1513 1513 1513 1513 1513 1513 1512 1512 1512 1512 1513 1513 1515 1516 1517 1518 1519 1521 1522 1524 1526 1527 1529 1530 1532 1534 1536 1538 1540 1542 1544 1546 1548 1549 1551
1510 1510 1510 1511 1510 1510 1510 1510 1510 1509 1509 1508 1508 1507 1507 1506 1506 1506 1506 1506 1507 1508 1510 1511 1512 1514 1516 1518 1520 1521 1523 1525 1527 1529 1531 1533 1535 1536 1538 1540 1542 1544 1546
1508 1508 1508 1508 1508 1507 1507 1507 1507 1506 1505 1504 1503 1503 1502 1501 1501 1500 1500 1501 1501 1502 1503 1504 1506 1508 1509 1511 1513 1515 1517 1519 1521 1523 1525 1527 1529 1531 1533 1535 1537 1539 1541
1506 1505 1505 1504 1504 1504 1504 1503 1502 1502 1501 1501 1500 1498 1496 1496 1495 1494 1494 1495 1496 1496 1497 1498 1500 1501 1502 1505 1507 1509 1511 1513 1515 1517 1519 1521 1523 1525 1526 1528 1531 1533 1535
1502 1503 1502 1501 1501 1500 1499 1499 1499 1498 1497 1497 1496 1495 1492 1492 1490 1490 1489 1488 1489 1490 1491 1493 1494 1495 1496 1498 1501 1503 1505 1506 1509 1511 1513 1515 1516 1518 1520 1522 1524 1526 1528
1499 1499 1498 1497 1497 1496 1496 1496 1495 1494 1493 1493 1493 1493 1490 1487 1486 1484 1484 1484 1484 1484 1486 1488 1490 1490 1491 1493 1494 1496 1499 1501 1503 1504 1506 1508 1509 1511 1512 1514 1516 1519 1522
1496 1496 1495 1494 1493 1493 1492 1492 1492 1490 1489 1488 1488 1488 1488 1487 1485 1481 1479 1479 1479 1480 1481 1483 1485 1486 1486 1487 1487 1489 1492 1495 1497 1498 1499 1501 1502 1503 1505 1506 1509 1511 1514
1493 1492 1491 1491 1490 1490 1489 1488 1487 1486 1485 1484 1484 1483 1483 1482 1481 1481 1478 1476 1476 1477 1477 1477 1480 1482 1482 1482 1482 1484 1486 1489 1491 1492 1493 1494 1495 1496 1497 1499 1501 1504 1507
1490 1489 1488 1487 1487 1486 1486 1485 1484 1482 1482 1481 1480 1479 1478 1477 1476 1476 1475 1474 1473 1474 1474 1474 1475 1476 1477 1478 1478 1480 1482 1484 1486 1487 1488 1488 1489 1490 1491 1492 1494 1497 1500
1487 1486 1485 1484 1483 1483 1482 1481 1480 1479 1478 1477 1475 1474 1473 1472 1472 1471 1471 1469 1470 1470 1470 1470 1470 1472 1472 1473 1475 1477 1479 1480 1481 1482 1483 1484 1485 1485 1486 1487 1489 1491 1494
1483 1483 1481 1480 1479 1479 1478 1477 1476 1475 1474 1473 1471 1470 1468 1467 1466 1466 1465 1465 1464 1465 1465 1466 1466 1467 1469 1470 1472 1473 1475 1477 1478 1479 1480 1481 1481 1482 1483 1484 1485 1487 1489
1477 1477 1477 1476 1475 1474 1474 1473 1472 1471 1470 1468 1467 1465 1463 1462 1461 1460 1459 1460 1460 1459 1460 1461 1462 1463 1465 1467 1469 1471 1473 1474 1475 1477 1478 1479 1480 1481 1481 1482 1483 1484 1486
1470 1470 1471 1471 1470 1470 1469 1468 1467 1466 1465 1464 1462 1460 1458 1456 1455 1453 1452 1452 1453 1454 1455 1456 1457 1460 1462 1464 1467 1469 1471 1472 1474 1476 1477 1478 1479 1480 1481 1481 1482 1483 1484
1464 1464 1464 1464 1465 1465 1464 1463 1462 1462 1460 1459 1457 1455 1453 1451 1449 1447 1446 1446 1446 1448 1450 1452 1454 1457 1459 1462 1465 1467 1469 1471 1473 1475 1477 1478 1479 1480 1481 1482 1482 1483 1484
1459 1458 1457 1457 1458 1458 1459 1458 1457 1457 1455 1454 1452 1450 1448 1446 1444 1442 1441 1440 1440 1442 1445 1448 1451 1454 1457 1461 1464 1466 1468 1471 1473 1475 1477 1478 1479 1480 1481 1482 1483 1483 1484
1451 1450 1451 1450 1450 1451 1452 1452 1452 1451 1450 1449 1448 1446 1444 1442 1439 1437 1436 1435 1435 1437 1440 1444 1448 1452 1456 1459 1463 1466 1468 1471 1473 1476 1478 1479 1480 1481 1482 1483 1484 1484 1485
1442 1442 1442 1442 1443 1443 1444 1445 1445 1445 1445 1444 1443 1442 1440 1438 1436 1434 1432 1432 1432 1434 1437 1441 1445 1450 1454 1459 1462 1465 1468 1472 1474 1477 1479 1480 1482 1483 1484 1485 1486 1486 1486
1434 1434 1433 1433 1434 1435 1436 1437 1438 1439 1439 1439 1439 1438 1437 1435 1433 1431 1429 1429 1430 1432 1435 1439 1443 1449 1453 1457 1462 1465 1468 1472 1476 1478 1479 1482 1484 1485 1486 1487 1488 1488 1488
1428 1427 1426 1426 1426 1427 1428 1429 1431 1432 1433 1434 1434 1434 1433 1433 1431 1429 1428 1428 1430 1432 1434 1438 1443 1448 1453 1457 1462 1466 1469 1472 1477 1481 1481 1484 1485 1487 1488 1489 1490 1490 1490
1423 1421 1420 1419 1419 1420 1420 1421 1422 1424 1426 1428 1430 1431 1431 1430 1430 1429 1429 1430 1432 1434 1437 1440 1444 1449 1453 1458 1462 1466 1470 1473 1476 1479 1483 1485 1487 1488 1490 1491 1491 1491 1491
1417 1416 1415 1414 1414 1413 1414 1414 1415 1417 1419 1422 1425 1426 1427 1428 1429 1429 1430 1431 1433 1436 1439 1443 1446 1451 1455 1459 1463 1468 1471 1475 1478 1481 1483 1485 1488 1489 1491 1492 1492 1493 1493
1410 1409 1408 1408 1408 1407 1408 1407 1408 1410 1413 1416 1419 1421 1424 1426 1428 1429 1431 1432 1435 1438 1442 1446 1450 1453 1457 1461 1465 1469 1472 1475 1478 1481 1484 1485 1487 1489 1491 1492 1493 1493 1494
1402 1402 1401 1402 1402 1402 1402 1402 1402 1404 1406 1410 1414 1417 1420 1423 1426 1429 1431 1433 1435 1439 1443 1448 1452 1456 1459 1463 1466 1469 1471 1474 1476 1480 1483 1485 1486 1488 1491 1492 1493 1493 1494